Location: *
(57.8420°S, 159.8600°W)
Time: 12:34:30
(UTC+00:00)

Cosmos 1633 - Pass Details

Date: 18 May 2021
Orbit: 460 x 478 km, 82.5° (Epoch: 22 June)

Event Time Altitude Azimuth Distance (km) Brightness Sun altitude
Rises 03:41:31 0° 36° (NE) 2,524 6.1 -9.6°
Reaches altitude 10° 03:44:13 10° 59° (ENE) 1,660 4.9 -9.9°
Maximum altitude 03:46:25 16° 96° (E) 1,362 4.2 -10.2°
Enters shadow 03:47:03 15° 108° (ESE) 1,393 4.2 -10.2°
